| time (UTC) | temp F | wind direction | speed knots | gust knots | rain 1hr in | rain 24hr in | rain mn in | humidity % | barometer mb |
| 20260505094336 | 61 | 187 | 7.8 | 8.7 | 0.00 | 0.00 | 0.00 | 91 | 1056.0 |
| 20260505093832 | 61 | 161 | 8.7 | 9.6 | 0.00 | 0.00 | 0.00 | 91 | 1056.1 |
| 20260505093330 | 61 | 180 | 7.0 | 8.7 | 0.00 | 0.00 | 0.00 | 90 | 1056.1 |
| 20260505092826 | 61 | 197 | 7.8 | 11.3 | 0.00 | 0.00 | 0.00 | 90 | 1056.3 |
| 20260505092325 | 61 | 167 | 7.8 | 8.7 | 0.00 | 0.00 | 0.00 | 90 | 1056.1 |
| 20260505091821 | 61 | 197 | 5.2 | 6.1 | 0.00 | 0.00 | 0.00 | 90 | 1056.3 |
| 20260505091320 | 61 | 198 | 5.2 | 7.8 | 0.00 | 0.00 | 0.00 | 89 | 1056.6 |
| 20260505090817 | 61 | 201 | 4.3 | 5.2 | 0.00 | 0.00 | 0.00 | 89 | 1056.3 |
| 20260505090316 | 62 | 182 | 6.1 | 8.7 | 0.00 | 0.00 | 0.00 | 89 | 1056.4 |
| 20260505085812 | 62 | 193 | 6.1 | 7.8 | 0.00 | 0.00 | 0.00 | 88 | 1056.4 |
| 20260505085310 | 62 | 177 | 7.8 | 11.3 | 0.00 | 0.00 | 0.00 | 88 | 1056.4 |
| 20260505084808 | 62 | 188 | 6.1 | 7.0 | 0.00 | 0.00 | 0.00 | 87 | 1056.5 |
| 20260505084306 | 62 | 187 | 7.0 | 8.7 | 0.00 | 0.00 | 0.00 | 87 | 1056.4 |
| 20260505083803 | 62 | 185 | 10.4 | 13.0 | 0.00 | 0.00 | 0.00 | 87 | 1056.6 |
| 20260505083300 | 62 | 211 | 4.3 | 5.2 | 0.00 | 0.00 | 0.00 | 86 | 1056.6 |
| 20260505082756 | 62 | 171 | 5.2 | 7.8 | 0.00 | 0.00 | 0.00 | 86 | 1056.5 |
| 20260505082253 | 62 | 196 | 4.3 | 5.2 | 0.00 | 0.00 | 0.00 | 85 | 1056.9 |
| 20260505081749 | 62 | 174 | 7.8 | 9.6 | 0.00 | 0.00 | 0.00 | 85 | 1056.9 |
| 20260505081246 | 62 | 186 | 5.2 | 6.1 | 0.00 | 0.00 | 0.00 | 85 | 1057.0 |
| 20260505080743 | 62 | 182 | 4.3 | 7.8 | 0.00 | 0.00 | 0.00 | 84 | 1057.0 |
| 20260505080239 | 62 | 199 | 4.3 | 7.0 | 0.00 | 0.00 | 0.00 | 84 | 1056.9 |
| 20260505075734 | 62 | 172 | 2.6 | 5.2 | 0.00 | 0.00 | 0.00 | 84 | 1057.1 |
| 20260505075232 | 62 | 165 | 3.5 | 5.2 | 0.00 | 0.00 | 0.00 | 83 | 1057.0 |
| 20260505074729 | 63 | 204 | 4.3 | 7.0 | 0.00 | 0.00 | 0.00 | 82 | 1057.0 |
| 20260505074226 | 63 | 184 | 5.2 | 6.1 | 0.00 | 0.00 | 0.00 | 82 | 1057.3 |
| 20260505073724 | 63 | 189 | 7.0 | 8.7 | 0.00 | 0.00 | 0.00 | 82 | 1057.1 |
| 20260505073221 | 63 | 190 | 5.2 | 6.1 | 0.00 | 0.00 | 0.00 | 81 | 1057.2 |
| 20260505072717 | 63 | 190 | 3.5 | 5.2 | 0.00 | 0.00 | 0.00 | 81 | 1057.3 |
| 20260505072214 | 63 | 174 | 3.5 | 6.1 | 0.00 | 0.00 | 0.00 | 80 | 1057.4 |
| 20260505071709 | 63 | 169 | 4.3 | 6.1 | 0.00 | 0.00 | 0.00 | 80 | 1057.3 |
| 20260505071207 | 63 | 158 | 4.3 | 6.1 | 0.00 | 0.00 | 0.00 | 79 | 1057.2 |
| 20260505070704 | 63 | 205 | 5.2 | 7.8 | 0.00 | 0.00 | 0.00 | 79 | 1057.2 |
| 20260505070200 | 64 | 190 | 4.3 | 7.0 | 0.00 | 0.00 | 0.00 | 78 | 1057.1 |
| 20260505065656 | 64 | 192 | 4.3 | 6.1 | 0.00 | 0.00 | 0.00 | 78 | 1057.4 |
| 20260505065153 | 64 | 183 | 7.0 | 7.8 | 0.00 | 0.00 | 0.00 | 77 | 1057.6 |
| 20260505064650 | 63 | 178 | 5.2 | 6.1 | 0.00 | 0.00 | 0.00 | 77 | 1058.0 |
| 20260505064148 | 63 | 187 | 6.1 | 8.7 | 0.00 | 0.00 | 0.00 | 77 | 1058.2 |
| 20260505063646 | 63 | 174 | 5.2 | 6.1 | 0.00 | 0.00 | 0.00 | 76 | 1057.9 |
| 20260505063142 | 63 | 154 | 5.2 | 7.8 | 0.00 | 0.00 | 0.00 | 76 | 1058.0 |
| 20260505062638 | 63 | 184 | 5.2 | 6.1 | 0.00 | 0.00 | 0.00 | 75 | 1058.3 |
| 20260505062135 | 63 | 188 | 5.2 | 6.1 | 0.00 | 0.00 | 0.00 | 75 | 1058.3 |
| 20260505061632 | 63 | 163 | 3.5 | 3.5 | 0.00 | 0.00 | 0.00 | 74 | 1058.2 |
| 20260505061131 | 64 | 192 | 3.5 | 3.5 | 0.00 | 0.00 | 0.00 | 74 | 1058.4 |
| 20260505060628 | 64 | 173 | 6.1 | 7.0 | 0.00 | 0.00 | 0.00 | 73 | 1058.4 |
| 20260505060125 | 64 | 180 | 5.2 | 6.1 | 0.00 | 0.00 | 0.00 | 73 | 1058.6 |
| 20260505055620 | 64 | 154 | 5.2 | 6.1 | 0.00 | 0.00 | 0.00 | 72 | 1058.4 |
| 20260505055116 | 64 | 172 | 7.8 | 8.7 | 0.00 | 0.00 | 0.00 | 72 | 1058.5 |
| 20260505054614 | 64 | 188 | 4.3 | 5.2 | 0.00 | 0.00 | 0.00 | 71 | 1058.5 |
| 20260505054112 | 64 | 195 | 7.0 | 8.7 | 0.00 | 0.00 | 0.00 | 71 | 1058.5 |
| 20260505053609 | 64 | 169 | 7.0 | 9.6 | 0.00 | 0.00 | 0.00 | 70 | 1058.6 |
| 20260505053105 | 64 | 191 | 6.1 | 7.0 | 0.00 | 0.00 | 0.00 | 70 | 1058.8 |
| 20260505052602 | 64 | 185 | 4.3 | 6.1 | 0.00 | 0.00 | 0.00 | 70 | 1058.8 |
| 20260505052100 | 64 | 198 | 5.2 | 5.2 | 0.00 | 0.00 | 0.00 | 69 | 1058.8 |
| 20260505051557 | 64 | 178 | 5.2 | 6.1 | 0.00 | 0.00 | 0.00 | 69 | 1058.9 |
| 20260505051055 | 64 | 167 | 7.0 | 7.8 | 0.00 | 0.00 | 0.00 | 68 | 1058.9 |
| 20260505050552 | 64 | 169 | 4.3 | 5.2 | 0.00 | 0.00 | 0.00 | 68 | 1059.0 |
| 20260505041520 | 65 | 180 | 7.8 | 8.7 | 0.00 | 0.00 | 0.00 | 66 | 1059.5 |
| 20260505041018 | 64 | 185 | 5.2 | 7.0 | 0.00 | 0.00 | 0.00 | 66 | 1059.6 |
| 20260505040515 | 64 | 174 | 5.2 | 7.0 | 0.00 | 0.00 | 0.00 | 66 | 1059.5 |
| 20260505040012 | 64 | 171 | 6.1 | 7.0 | 0.00 | 0.00 | 0.00 | 66 | 1059.7 |
| 20260505035508 | 64 | 171 | 7.0 | 9.6 | 0.00 | 0.00 | 0.00 | 66 | 1059.7 |
| 20260505035005 | 64 | 184 | 6.1 | 7.0 | 0.00 | 0.00 | 0.00 | 66 | 1059.7 |
| 20260505034501 | 65 | 170 | 6.1 | 7.8 | 0.00 | 0.00 | 0.00 | 66 | 1059.3 |
| 20260505033958 | 65 | 181 | 7.8 | 8.7 | 0.00 | 0.00 | 0.00 | 66 | 1059.7 |
| 20260505033455 | 65 | 169 | 7.8 | 8.7 | 0.00 | 0.00 | 0.00 | 66 | 1059.6 |
| 20260505032954 | 65 | 181 | 5.2 | 7.0 | 0.00 | 0.00 | 0.00 | 66 | 1059.6 |
| 20260505032450 | 65 | 169 | 7.8 | 8.7 | 0.00 | 0.00 | 0.00 | 66 | 1059.7 |
| 20260505031946 | 65 | 184 | 7.8 | 7.8 | 0.00 | 0.00 | 0.00 | 66 | 1059.5 |
| 20260505031444 | 65 | 120 | 7.0 | 9.6 | 0.00 | 0.00 | 0.00 | 66 | 1059.5 |
| 20260505030941 | 65 | 152 | 6.1 | 7.8 | 0.00 | 0.00 | 0.00 | 66 | 1059.4 |
| 20260505030437 | 65 | 165 | 7.8 | 9.6 | 0.00 | 0.00 | 0.00 | 66 | 1059.7 |
| 20260505025932 | 65 | 167 | 6.1 | 7.0 | 0.00 | 0.00 | 0.00 | 66 | 1059.4 |
| 20260505025429 | 65 | 179 | 8.7 | 8.7 | 0.00 | 0.00 | 0.00 | 66 | 1059.5 |
| 20260505024928 | 65 | 170 | 8.7 | 11.3 | 0.00 | 0.00 | 0.00 | 66 | 1059.5 |
| 20260505024425 | 65 | 172 | 7.8 | 8.7 | 0.00 | 0.00 | 0.00 | 65 | 1059.6 |
| 20260505023922 | 65 | 165 | 8.7 | 11.3 | 0.00 | 0.00 | 0.00 | 65 | 1059.3 |
| 20260505023419 | 65 | 184 | 6.1 | 7.8 | 0.00 | 0.00 | 0.00 | 65 | 1059.0 |
| 20260505022916 | 65 | 173 | 7.8 | 9.6 | 0.00 | 0.00 | 0.00 | 65 | 1059.1 |
| 20260505022414 | 65 | 171 | 7.8 | 8.7 | 0.00 | 0.00 | 0.00 | 65 | 1059.1 |
| 20260505021911 | 66 | 177 | 7.0 | 7.8 | 0.00 | 0.00 | 0.00 | 64 | 1059.1 |
| 20260505021407 | 66 | 148 | 5.2 | 7.0 | 0.00 | 0.00 | 0.00 | 64 | 1059.0 |
| 20260505020903 | 66 | 260 | 7.8 | 7.8 | 0.00 | 0.00 | 0.00 | 64 | 1058.8 |
| 20260505020359 | 66 | 179 | 4.3 | 5.2 | 0.00 | 0.00 | 0.00 | 63 | 1058.9 |
| 20260505015856 | 66 | 177 | 7.0 | 7.8 | 0.00 | 0.00 | 0.00 | 64 | 1058.9 |
| 20260505015353 | 66 | 165 | 7.8 | 8.7 | 0.00 | 0.00 | 0.00 | 63 | 1058.7 |
| 20260505014850 | 66 | 167 | 7.0 | 7.8 | 0.00 | 0.00 | 0.00 | 64 | 1058.5 |
| 20260505014347 | 66 | 71 | 6.1 | 7.8 | 0.00 | 0.00 | 0.00 | 64 | 1058.7 |
| 20260505013844 | 66 | 156 | 7.8 | 8.7 | 0.00 | 0.00 | 0.00 | 64 | 1058.8 |
| 20260505013341 | 66 | 185 | 7.8 | 7.8 | 0.00 | 0.00 | 0.00 | 64 | 1058.5 |
| 20260505012839 | 66 | 175 | 6.1 | 7.8 | 0.00 | 0.00 | 0.00 | 65 | 1058.4 |
| 20260505012337 | 66 | 174 | 7.8 | 8.7 | 0.00 | 0.00 | 0.00 | 64 | 1058.4 |
| 20260505011832 | 66 | 178 | 6.1 | 7.0 | 0.00 | 0.00 | 0.00 | 64 | 1058.7 |
| 20260505011330 | 66 | 178 | 5.2 | 7.0 | 0.00 | 0.00 | 0.00 | 65 | 1058.7 |
| 20260505010825 | 67 | 169 | 6.1 | 7.8 | 0.00 | 0.00 | 0.00 | 64 | 1058.5 |
| 20260505010321 | 67 | 174 | 6.1 | 7.0 | 0.00 | 0.00 | 0.00 | 63 | 1058.8 |
| 20260505005818 | 67 | 131 | 7.0 | 8.7 | 0.00 | 0.00 | 0.00 | 62 | 1058.6 |
| 20260505005315 | 67 | 169 | 7.8 | 9.6 | 0.00 | 0.00 | 0.00 | 62 | 1058.4 |
| 20260505004812 | 67 | 183 | 6.1 | 7.8 | 0.00 | 0.00 | 0.00 | 62 | 1058.6 |
| 20260505004308 | 67 | 185 | 7.0 | 7.8 | 0.00 | 0.00 | 0.00 | 62 | 1058.6 |
| 20260505003806 | 67 | 154 | 7.8 | 9.6 | 0.00 | 0.00 | 0.00 | 61 | 1058.5 |
| 20260505003303 | 67 | 177 | 5.2 | 6.1 | 0.00 | 0.00 | 0.00 | 61 | 1058.7 |
| 20260505002759 | 67 | 177 | 5.2 | 7.0 | 0.00 | 0.00 | 0.00 | 61 | 1058.7 |
| 20260505002257 | 68 | 173 | 6.1 | 7.8 | 0.00 | 0.00 | 0.00 | 61 | 1058.7 |
| 20260505001754 | 68 | 186 | 5.2 | 6.1 | 0.00 | 0.00 | 0.00 | 61 | 1058.9 |
| 20260505001252 | 68 | 173 | 6.1 | 7.0 | 0.00 | 0.00 | 0.00 | 61 | 1058.8 |
| 20260505000749 | 68 | 171 | 4.3 | 6.1 | 0.00 | 0.00 | 0.00 | 60 | 1058.9 |
| 20260505000246 | 68 | 165 | 3.5 | 3.5 | 0.00 | 0.00 | 0.00 | 61 | 1058.9 |
| 20260504235743 | 68 | 187 | 5.2 | 6.1 | 0.00 | 0.00 | 0.00 | 60 | 1058.7 |
| 20260504235239 | 68 | 172 | 5.2 | 6.1 | 0.00 | 0.00 | 0.00 | 60 | 1058.9 |
| 20260504234736 | 68 | 188 | 5.2 | 7.0 | 0.00 | 0.00 | 0.00 | 59 | 1059.0 |
| 20260504234233 | 69 | 185 | 4.3 | 5.2 | 0.00 | 0.00 | 0.00 | 59 | 1058.8 |
| 20260504233730 | 69 | 182 | 7.8 | 8.7 | 0.00 | 0.00 | 0.00 | 58 | 1059.2 |
| 20260504233226 | 69 | 182 | 7.0 | 9.6 | 0.00 | 0.00 | 0.00 | 57 | 1059.0 |
| 20260504232723 | 69 | 159 | 7.0 | 7.8 | 0.00 | 0.00 | 0.00 | 58 | 1059.2 |
| 20260504232220 | 69 | 169 | 5.2 | 7.0 | 0.00 | 0.00 | 0.00 | 58 | 1059.1 |
| 20260504231716 | 69 | 174 | 4.3 | 5.2 | 0.00 | 0.00 | 0.00 | 58 | 1059.3 |
| 20260504231213 | 69 | 141 | 5.2 | 7.0 | 0.00 | 0.00 | 0.00 | 56 | 1059.3 |
| 20260504230709 | 69 | 180 | 6.1 | 7.0 | 0.00 | 0.00 | 0.00 | 57 | 1059.3 |
| 20260504230208 | 69 | 179 | 5.2 | 6.1 | 0.00 | 0.00 | 0.00 | 57 | 1059.3 |
| 20260504225706 | 69 | 164 | 6.1 | 7.0 | 0.00 | 0.00 | 0.00 | 59 | 1059.2 |
| 20260504225202 | 69 | 174 | 3.5 | 5.2 | 0.00 | 0.00 | 0.00 | 58 | 1059.3 |
| 20260504224659 | 70 | 161 | 4.3 | 5.2 | 0.00 | 0.00 | 0.00 | 57 | 1059.6 |
| 20260504224156 | 70 | 161 | 3.5 | 5.2 | 0.00 | 0.00 | 0.00 | 57 | 1059.6 |
| 20260504223653 | 70 | 196 | 7.0 | 8.7 | 0.00 | 0.00 | 0.00 | 56 | 1059.5 |
| 20260504223148 | 70 | 165 | 3.5 | 5.2 | 0.00 | 0.00 | 0.00 | 57 | 1059.6 |
| 20260504222646 | 70 | 132 | 2.6 | 2.6 | 0.00 | 0.00 | 0.00 | 57 | 1059.7 |
| 20260504222142 | 71 | 169 | 7.0 | 7.8 | 0.00 | 0.00 | 0.00 | 54 | 1059.9 |
| 20260504221640 | 71 | 182 | 6.1 | 7.8 | 0.00 | 0.00 | 0.00 | 54 | 1059.7 |
| 20260504221137 | 71 | 172 | 6.1 | 7.0 | 0.00 | 0.00 | 0.00 | 55 | 1059.8 |
| 20260504220633 | 72 | 175 | 5.2 | 7.0 | 0.00 | 0.00 | 0.00 | 52 | 1059.6 |
| 20260504220131 | 72 | 171 | 3.5 | 3.5 | 0.00 | 0.00 | 0.00 | 54 | 1059.9 |
| 20260504215627 | 71 | 179 | 2.6 | 2.6 | 0.00 | 0.00 | 0.00 | 53 | 1059.9 |
| 20260504215125 | 71 | 189 | 3.5 | 5.2 | 0.00 | 0.00 | 0.00 | 52 | 1060.2 |
| 20260504214620 | 72 | 186 | 4.3 | 5.2 | 0.00 | 0.00 | 0.00 | 52 | 1060.1 |
| 20260504214117 | 72 | 181 | 3.5 | 3.5 | 0.00 | 0.00 | 0.00 | 53 | 1060.2 |
| 20260504213613 | 71 | 184 | 2.6 | 2.6 | 0.00 | 0.00 | 0.00 | 55 | 1060.5 |
| 20260504213110 | 71 | 193 | 4.3 | 6.1 | 0.00 | 0.00 | 0.00 | 52 | 1060.5 |
| 20260504212606 | 71 | 155 | 5.2 | 7.0 | 0.00 | 0.00 | 0.00 | 54 | 1060.4 |
| 20260504212103 | 71 | 167 | 4.3 | 5.2 | 0.00 | 0.00 | 0.00 | 54 | 1060.4 |
| 20260504211601 | 71 | 189 | 6.1 | 7.8 | 0.00 | 0.00 | 0.00 | 52 | 1060.7 |
| 20260504211057 | 71 | 165 | 4.3 | 5.2 | 0.00 | 0.00 | 0.00 | 53 | 1060.5 |
| 20260504210555 | 70 | 171 | 3.5 | 5.2 | 0.00 | 0.00 | 0.00 | 54 | 1060.8 |
| 20260504210051 | 70 | 179 | 3.5 | 3.5 | 0.00 | 0.00 | 0.00 | 53 | 1060.9 |
| 20260504205549 | 70 | 172 | 4.3 | 5.2 | 0.00 | 0.00 | 0.00 | 55 | 1060.9 |
| 20260504205047 | 70 | 157 | 5.2 | 8.7 | 0.00 | 0.00 | 0.00 | 53 | 1061.1 |
| 20260504204544 | 70 | 169 | 3.5 | 5.2 | 0.00 | 0.00 | 0.00 | 53 | 1060.9 |
| 20260504204043 | 71 | 159 | 4.3 | 6.1 | 0.00 | 0.00 | 0.00 | 52 | 1061.3 |
| 20260504203541 | 71 | 164 | 4.3 | 6.1 | 0.00 | 0.00 | 0.00 | 54 | 1061.4 |
| 20260504203038 | 71 | 182 | 5.2 | 5.2 | 0.00 | 0.00 | 0.00 | 52 | 1061.5 |
| 20260504202533 | 71 | 178 | 3.5 | 5.2 | 0.00 | 0.00 | 0.00 | 52 | 1061.3 |
| 20260504202031 | 71 | 206 | 1.7 | 1.7 | 0.00 | 0.00 | 0.00 | 52 | 1061.3 |
| 20260504201527 | 70 | 174 | 4.3 | 5.2 | 0.00 | 0.00 | 0.00 | 54 | 1061.7 |
| 20260504201025 | 69 | 180 | 3.5 | 3.5 | 0.00 | 0.00 | 0.00 | 55 | 1062.0 |
| 20260504200521 | 70 | 147 | 5.2 | 6.1 | 0.00 | 0.00 | 0.00 | 53 | 1061.7 |
| 20260504200018 | 71 | 166 | 4.3 | 6.1 | 0.00 | 0.00 | 0.00 | 51 | 1062.0 |
| 20260504195514 | 71 | 182 | 2.6 | 3.5 | 0.00 | 0.00 | 0.00 | 55 | 1062.2 |
| 20260504195011 | 69 | 182 | 4.3 | 6.1 | 0.00 | 0.00 | 0.00 | 54 | 1062.1 |
| 20260504194508 | 69 | 176 | 3.5 | 6.1 | 0.00 | 0.00 | 0.00 | 56 | 1062.1 |
| 20260504194003 | 70 | 182 | 4.3 | 5.2 | 0.00 | 0.00 | 0.00 | 55 | 1062.3 |
| 20260504193500 | 69 | 189 | 4.3 | 5.2 | 0.00 | 0.00 | 0.00 | 55 | 1062.3 |
| 20260504192959 | 69 | 189 | 2.6 | 5.2 | 0.00 | 0.00 | 0.00 | 55 | 1062.3 |
| 20260504192456 | 69 | 146 | 3.5 | 3.5 | 0.00 | 0.00 | 0.00 | 54 | 1062.5 |
| 20260504191955 | 69 | 172 | 5.2 | 6.1 | 0.00 | 0.00 | 0.00 | 54 | 1062.6 |
| 20260504191452 | 69 | 177 | 7.0 | 8.7 | 0.00 | 0.00 | 0.00 | 55 | 1062.7 |
| 20260504190947 | 68 | 184 | 5.2 | 7.0 | 0.00 | 0.00 | 0.00 | 55 | 1062.4 |
| 20260504190443 | 69 | 182 | 7.0 | 7.8 | 0.00 | 0.00 | 0.00 | 55 | 1062.5 |
| 20260504185940 | 69 | 175 | 3.5 | 5.2 | 0.00 | 0.00 | 0.00 | 54 | 1062.3 |
| 20260504185438 | 69 | 171 | 4.3 | 7.8 | 0.00 | 0.00 | 0.00 | 53 | 1062.4 |
| 20260504184933 | 70 | 203 | 3.5 | 7.0 | 0.00 | 0.00 | 0.00 | 53 | 1062.5 |
| 20260504184429 | 69 | 189 | 4.3 | 3.5 | 0.00 | 0.00 | 0.00 | 53 | 1062.8 |
| 20260504183925 | 69 | 189 | 4.3 | 6.1 | 0.00 | 0.00 | 0.00 | 53 | 1062.7 |
| 20260504183423 | 68 | 174 | 6.1 | 7.8 | 0.00 | 0.00 | 0.00 | 53 | 1063.1 |
| 20260504182921 | 69 | 187 | 5.2 | 7.0 | 0.00 | 0.00 | 0.00 | 52 | 1063.1 |
| 20260504182417 | 70 | 169 | 4.3 | 6.1 | 0.00 | 0.00 | 0.00 | 52 | 1062.7 |
| 20260504181914 | 69 | 183 | 3.5 | 5.2 | 0.00 | 0.00 | 0.00 | 51 | 1063.0 |
| 20260504181412 | 69 | 154 | 3.5 | 5.2 | 0.00 | 0.00 | 0.00 | 52 | 1063.1 |
| 20260504180910 | 69 | 211 | 6.1 | 9.6 | 0.00 | 0.00 | 0.00 | 51 | 1063.0 |
| 20260504180409 | 69 | 189 | 5.2 | 7.0 | 0.00 | 0.00 | 0.00 | 51 | 1063.3 |
| 20260504175906 | 69 | 206 | 6.1 | 7.8 | 0.00 | 0.00 | 0.00 | 51 | 1063.3 |
| 20260504175403 | 68 | 178 | 6.1 | 7.8 | 0.00 | 0.00 | 0.00 | 51 | 1063.2 |
| 20260504174901 | 68 | 185 | 7.0 | 8.7 | 0.00 | 0.00 | 0.00 | 51 | 1063.3 |
| 20260504174358 | 68 | 211 | 7.8 | 13.0 | 0.00 | 0.00 | 0.00 | 51 | 1063.3 |
| 20260504173855 | 68 | 185 | 5.2 | 7.0 | 0.00 | 0.00 | 0.00 | 51 | 1063.2 |
| 20260504173352 | 68 | 179 | 6.1 | 7.0 | 0.00 | 0.00 | 0.00 | 52 | 1063.4 |
| 20260504172849 | 68 | 170 | 4.3 | 5.2 | 0.00 | 0.00 | 0.00 | 52 | 1063.2 |
| 20260504172345 | 68 | 173 | 5.2 | 7.0 | 0.00 | 0.00 | 0.00 | 54 | 1063.4 |
| 20260504171841 | 67 | 181 | 5.2 | 6.1 | 0.00 | 0.00 | 0.00 | 53 | 1063.7 |
| 20260504171339 | 67 | 170 | 6.1 | 7.8 | 0.00 | 0.00 | 0.00 | 52 | 1063.7 |
| 20260504170836 | 67 | 146 | 9.6 | 13.0 | 0.00 | 0.00 | 0.00 | 52 | 1063.6 |
| 20260504170332 | 67 | 145 | 5.2 | 9.6 | 0.00 | 0.00 | 0.00 | 53 | 1064.0 |
| 20260504160251 | 65 | 204 | 3.5 | 5.2 | 0.00 | 0.00 | 0.00 | 59 | 1064.5 |
| 20260504150716 | 62 | 115 | 3.5 | 3.5 | 0.00 | 0.00 | 0.00 | 64 | 1064.4 |
| 20260504150213 | 62 | 176 | 3.5 | 5.2 | 0.00 | 0.00 | 0.00 | 63 | 1064.5 |
| 20260504141142 | 62 | 191 | 4.3 | 6.1 | 0.00 | 0.00 | 0.00 | 63 | 1064.4 |
| 20260504140639 | 62 | 89 | 3.5 | 7.0 | 0.00 | 0.00 | 0.00 | 63 | 1064.4 |
| 20260504140134 | 62 | 140 | 4.3 | 6.1 | 0.00 | 0.00 | 0.00 | 64 | 1064.5 |
| 20260504130603 | 59 | 200 | 5.2 | 5.2 | 0.00 | 0.00 | 0.00 | 69 | 1064.6 |
| 20260504110451 | 60 | 200 | 3.5 | 5.2 | 0.00 | 0.00 | 0.00 | 58 | 1063.6 |
| 20260504100413 | 60 | 132 | 3.5 | 6.1 | 0.00 | 0.00 | 0.00 | 58 | 1064.1 |